CW7563 Weather Reports


time (UTC)temp
C
wind
direction
speed
KPH
gust
KPH
rain 1hr
cm
rain 24hr
cm
rain mn
cm
humidity
%
barometer
mb
20260505184306 16 239 3.2 9.7 0.00 0.00 0.00 75 1015.9
20260505183806 16 257 3.2 4.8 0.00 0.00 0.00 75 1015.9
20260505182306 15 124 3.2 11.3 0.00 0.00 0.00 77 1015.9
20260505181306 15 232 3.2 11.3 0.00 0.00 0.00 78 1015.7
20260505180307 15 241 1.6 4.8 0.00 0.00 0.00 78 1015.9
20260505175806 15 268 4.8 8.0 0.00 0.00 0.00 79 1015.8
20260505175306 14 264 4.8 9.7 0.00 0.00 0.00 79 1015.9
20260505174806 14 189 4.8 8.0 0.00 0.00 0.00 79 1015.9
20260505174306 13 265 1.6 4.8 0.00 0.00 0.00 80 1015.9
20260505173806 14 255 4.8 9.7 0.00 0.00 0.00 80 1015.9
20260505173306 13 302 3.2 8.0 0.00 0.00 0.00 80 1015.8
20260505172806 13 226 3.2 8.0 0.00 0.00 0.00 80 1015.8
20260505172306 13 235 3.2 9.7 0.00 0.00 0.00 80 1015.8
20260505171807 13 242 1.6 8.0 0.00 0.00 0.00 81 1015.8
20260505170806 13 226 3.2 8.0 0.00 0.00 0.00 82 1015.7
20260505165806 13 179 3.2 8.0 0.00 0.00 0.00 82 1015.6
20260505164806 13 244 3.2 8.0 0.00 0.00 0.00 82 1015.6
20260505164306 13 242 4.8 11.3 0.00 0.00 0.00 83 1015.6
20260505163806 13 236 4.8 9.7 0.00 0.00 0.00 83 1015.6
20260505163306 13 174 4.8 8.0 0.00 0.00 0.00 84 1015.5
20260505162805 13 229 3.2 8.0 0.00 0.00 0.00 84 1015.5
20260505162307 13 169 4.8 8.0 0.00 0.00 0.00 84 1015.5
20260505161806 12 236 1.6 8.0 0.00 0.00 0.00 84 1015.4
20260505161306 12 151 4.8 9.7 0.00 0.00 0.00 84 1015.4
20260505160805 13 237 1.6 4.8 0.00 0.00 0.00 84 1015.4
20260505160306 12 225 1.6 4.8 0.00 0.00 0.00 85 1015.4
20260505153306 12 187 3.2 8.0 0.00 0.00 0.00 85 1015.5
20260505152806 12 146 3.2 4.8 0.00 0.00 0.00 85 1015.4
20260505152306 12 203 3.2 4.8 0.00 0.00 0.00 85 1015.3
20260505151806 12 188 3.2 4.8 0.00 0.00 0.00 86 1015.3
20260505151307 12 186 6.4 11.3 0.00 0.00 0.00 85 1015.3
20260505150805 12 182 4.8 8.0 0.00 0.00 0.00 85 1015.3
20260505150306 12 181 3.2 4.8 0.00 0.00 0.00 86 1015.3
20260505140306 12 167 4.8 11.3 0.00 0.00 0.00 86 1014.7
20260505130305 11 180 3.2 4.8 0.00 0.00 0.00 87 1014.5
20260505124805 11 156 3.2 4.8 0.00 0.00 0.00 87 1014.5
20260505124306 11 151 1.6 4.8 0.00 0.00 0.00 87 1014.4
20260505123806 11 231 3.2 8.0 0.00 0.00 0.00 87 1014.3
20260505123305 11 153 1.6 4.8 0.00 0.00 0.00 88 1014.3
20260505122806 11 202 3.2 4.8 0.00 0.00 0.00 88 1014.3
20260505122306 11 205 1.6 4.8 0.00 0.00 0.00 88 1014.4
20260505121805 11 205 1.6 4.8 0.00 0.00 0.00 88 1014.4
20260505121305 11 206 1.6 3.2 0.00 0.00 0.00 88 1014.3
20260505120806 11 205 1.6 3.2 0.00 0.00 0.00 88 1014.3
20260505120306 11 206 3.2 4.8 0.00 0.00 0.00 88 1014.2
20260505114806 11 206 0.0 4.8 0.00 0.00 0.00 89 1014.2
20260505113806 11 199 1.6 3.2 0.00 0.00 0.00 89 1014.2
20260505113306 11 199 1.6 3.2 0.00 0.00 0.00 89 1014.2
20260505112805 11 199 1.6 4.8 0.00 0.00 0.00 89 1014.3
20260505112305 11 199 3.2 8.0 0.00 0.00 0.00 89 1014.2
20260505111305 11 206 4.8 4.8 0.00 0.00 0.00 89 1014.1
20260505110805 11 184 1.6 4.8 0.00 0.00 0.00 89 1014.1
20260505101805 11 169 1.6 4.8 0.00 0.00 0.00 90 1013.6
20260505101305 11 169 0.0 1.6 0.00 0.00 0.00 90 1013.6
20260505100805 11 169 0.0 3.2 0.00 0.00 0.00 90 1013.7
20260505095805 11 166 1.6 8.0 0.00 0.00 0.00 90 1013.6
20260505095305 11 194 3.2 4.8 0.00 0.00 0.00 90 1013.7
20260505094805 11 157 3.2 4.8 0.00 0.00 0.00 90 1013.7
20260505094305 11 157 3.2 4.8 0.00 0.00 0.00 90 1013.6
20260505093805 11 153 3.2 4.8 0.00 0.00 0.00 90 1013.6
20260505093305 11 153 3.2 4.8 0.00 0.00 0.00 90 1013.5
20260505092805 11 161 3.2 4.8 0.00 0.00 0.00 89 1013.4
20260505092305 11 213 0.0 4.8 0.00 0.00 0.00 89 1013.4
20260505091805 11 205 3.2 4.8 0.00 0.00 0.00 89 1013.4
20260505090805 11 186 3.2 8.0 0.00 0.00 0.00 89 1013.4
20260505090305 11 153 3.2 4.8 0.00 0.00 0.00 89 1013.3
20260505085805 11 189 4.8 9.7 0.00 0.00 0.00 89 1013.2
20260505085305 11 171 4.8 8.0 0.00 0.00 0.00 88 1013.2
20260505084805 11 188 4.8 8.0 0.00 0.00 0.00 88 1013.1
20260505084305 11 159 4.8 9.7 0.00 0.00 0.00 88 1013.2
20260505083805 11 193 4.8 12.9 0.00 0.00 0.00 88 1013.2
20260505083305 11 216 3.2 8.0 0.00 0.00 0.00 88 1013.3
20260505082805 11 157 3.2 4.8 0.00 0.00 0.00 87 1013.3
20260505082305 11 159 4.8 8.0 0.00 0.00 0.00 87 1013.3
20260505081805 11 174 1.6 4.8 0.00 0.00 0.00 87 1013.2
20260505081305 11 145 3.2 8.0 0.00 0.00 0.00 87 1013.2
20260505080805 11 140 1.6 4.8 0.00 0.00 0.00 86 1013.1
20260505075805 12 201 4.8 8.0 0.00 0.00 0.00 86 1013.0
20260505075305 12 175 1.6 8.0 0.00 0.00 0.00 86 1013.0
20260505074305 12 188 1.6 8.0 0.00 0.00 0.00 85 1012.8
20260505073305 12 201 4.8 8.0 0.00 0.00 0.00 85 1012.6
20260505072805 12 172 4.8 12.9 0.00 0.00 0.00 85 1012.6
20260505071804 12 206 4.8 11.3 0.00 0.00 0.00 84 1012.5
20260505071305 12 150 8.0 12.9 0.00 0.00 0.00 84 1012.5
20260505070817 12 235 3.2 4.8 0.00 0.00 0.00 83 1012.5
20260505070305 12 220 1.6 3.2 0.00 0.00 0.00 83 1012.4
20260505065804 12 43 4.8 9.7 0.00 0.00 0.00 83 1012.4
20260505065305 12 193 4.8 11.3 0.00 0.00 0.00 83 1012.3
20260505064805 13 178 3.2 8.0 0.00 0.00 0.00 83 1012.3
20260505064304 13 146 4.8 11.3 0.00 0.00 0.00 83 1012.2
20260505062305 13 181 4.8 9.7 0.00 0.00 0.00 82 1011.9
20260505061805 13 157 4.8 14.5 0.00 0.00 0.00 82 1011.9
20260505061305 13 170 3.2 9.7 0.00 0.00 0.00 81 1011.8
20260505060804 13 186 4.8 16.1 0.00 0.00 0.00 81 1011.8
20260505060305 13 165 4.8 16.1 0.00 0.00 0.00 81 1011.9
20260505055805 13 174 6.4 12.9 0.00 0.00 0.00 80 1011.8
20260505055305 13 181 4.8 14.5 0.00 0.00 0.00 80 1011.7
20260505054805 14 168 6.4 12.9 0.00 0.00 0.00 80 1011.6
20260505054304 14 161 8.0 14.5 0.00 0.00 0.00 80 1011.6
20260505053805 14 179 6.4 16.1 0.00 0.00 0.00 80 1011.5
20260505053305 14 173 6.4 19.3 0.00 0.00 0.00 79 1011.4
20260505052804 14 159 9.7 19.3 0.00 0.00 0.00 79 1011.4
20260505052305 15 166 8.0 19.3 0.00 0.00 0.00 78 1011.4
20260505051804 15 189 9.7 16.1 0.00 0.00 0.00 78 1011.4
20260505051304 15 174 6.4 16.1 0.00 0.00 0.00 78 1011.2
20260505050805 15 185 8.0 14.5 0.00 0.00 0.00 77 1011.3
20260505050305 15 198 6.4 14.5 0.00 0.00 0.00 77 1011.3
20260505041304 17 161 3.2 9.7 0.00 0.00 0.00 73 1010.5
20260505040804 17 185 4.8 9.7 0.00 0.00 0.00 73 1010.4
20260505040305 18 173 4.8 12.9 0.00 0.00 0.00 72 1010.3
20260505035804 18 191 4.8 11.3 0.00 0.00 0.00 72 1010.2
20260505035305 18 186 4.8 11.3 0.00 0.00 0.00 71 1010.1
20260505034305 18 187 4.8 9.7 0.00 0.00 0.00 70 1010.0
20260505033804 18 178 4.8 11.3 0.00 0.00 0.00 70 1009.9
20260505033305 19 195 3.2 8.0 0.00 0.00 0.00 69 1009.8
20260505032807 19 191 4.8 11.3 0.00 0.00 0.00 69 1009.8
20260505032307 19 198 6.4 14.5 0.00 0.00 0.00 68 1009.8
20260505031307 20 168 1.6 4.8 0.00 0.00 0.00 69 1009.6
20260505030807 20 197 4.8 11.3 0.00 0.00 0.00 68 1009.5
20260505030308 20 213 3.2 8.0 0.00 0.00 0.00 68 1009.5
20260505025807 20 230 3.2 14.5 0.00 0.00 0.00 68 1009.4
20260505025307 20 195 3.2 9.7 0.00 0.00 0.00 68 1009.3
20260505024807 20 158 3.2 11.3 0.00 0.00 0.00 67 1009.2
20260505024308 21 226 3.2 9.7 0.00 0.00 0.00 67 1009.2
20260505023807 21 226 4.8 12.9 0.00 0.00 0.00 67 1009.1
20260505023307 21 220 8.0 16.1 0.00 0.00 0.00 66 1009.1
20260505022308 21 237 4.8 9.7 0.00 0.00 0.00 66 1009.0
20260505021807 21 175 8.0 16.1 0.00 0.00 0.00 66 1009.0
20260505021307 22 199 4.8 16.1 0.00 0.00 0.00 66 1008.9
20260505020807 22 199 4.8 19.3 0.00 0.00 0.00 66 1008.9
20260505020307 22 158 3.2 8.0 0.00 0.00 0.00 65 1009.0
20260505015307 22 185 8.0 16.1 0.00 0.00 0.00 65 1009.0
20260505014807 22 173 4.8 20.9 0.00 0.00 0.00 65 1009.0
20260505014307 22 168 8.0 14.5 0.00 0.00 0.00 64 1009.0
20260505013807 22 231 4.8 14.5 0.00 0.00 0.00 64 1009.1
20260505013307 22 208 8.0 19.3 0.00 0.00 0.00 64 1009.1
20260505012807 22 224 8.0 14.5 0.00 0.00 0.00 65 1009.2
20260505012307 22 157 6.4 11.3 0.00 0.00 0.00 64 1009.2
20260505011807 22 222 4.8 14.5 0.00 0.00 0.00 64 1009.3
20260505011307 22 156 4.8 11.3 0.00 0.00 0.00 65 1009.4
20260505010807 22 189 4.8 16.1 0.00 0.00 0.00 65 1009.4
20260505010307 22 183 9.7 19.3 0.00 0.00 0.00 65 1009.5
20260505005807 22 192 11.3 19.3 0.00 0.00 0.00 64 1009.5
20260505005306 22 169 4.8 12.9 0.00 0.00 0.00 65 1009.5
20260505004807 22 165 8.0 14.5 0.00 0.00 0.00 65 1009.5
20260505004307 22 180 9.7 16.1 0.00 0.00 0.00 64 1009.5
20260505003807 22 188 4.8 12.9 0.00 0.00 0.00 64 1009.4
20260505003307 22 158 8.0 16.1 0.00 0.00 0.00 64 1009.4
20260505002807 22 139 6.4 14.5 0.00 0.00 0.00 65 1009.5
20260505002307 22 166 11.3 20.9 0.00 0.00 0.00 64 1009.6
20260505000807 22 135 4.8 24.1 0.00 0.00 0.00 64 1009.7
20260504235806 22 194 9.7 19.3 0.00 0.00 0.00 64 1009.8
20260504235307 22 195 4.8 19.3 0.00 0.00 0.00 64 1009.7
20260504234807 22 183 8.0 16.1 0.00 0.00 0.00 63 1009.8
20260504234306 22 160 4.8 16.1 0.00 0.00 0.00 64 1009.8
20260504233807 22 181 8.0 19.3 0.00 0.00 0.00 64 1009.9
20260504233307 22 173 9.7 19.3 0.00 0.00 0.00 63 1010.0
20260504232806 22 174 4.8 19.3 0.00 0.00 0.00 65 1010.1
20260504232306 22 162 9.7 16.1 0.00 0.00 0.00 64 1010.0
20260504231807 22 238 4.8 19.3 0.00 0.00 0.00 65 1010.0
20260504231307 22 178 8.0 20.9 0.00 0.00 0.00 64 1010.1
20260504230807 21 158 11.3 19.3 0.00 0.00 0.00 64 1010.1
20260504230307 22 150 9.7 19.3 0.00 0.00 0.00 64 1010.1
20260504225807 21 248 8.0 19.3 0.00 0.00 0.00 64 1010.2
20260504224807 21 201 8.0 14.5 0.00 0.00 0.00 64 1010.3
20260504224307 21 157 8.0 16.1 0.00 0.00 0.00 64 1010.4
20260504222307 21 193 6.4 19.3 0.00 0.00 0.00 64 1010.6
20260504221807 21 168 9.7 20.9 0.00 0.00 0.00 64 1010.7
20260504221306 21 118 6.4 16.1 0.00 0.00 0.00 65 1010.7
20260504220807 21 134 8.0 12.9 0.00 0.00 0.00 65 1010.8
20260504220306 21 226 6.4 11.3 0.00 0.00 0.00 66 1010.8
20260504215807 20 180 11.3 19.3 0.00 0.00 0.00 66 1010.8
20260504214806 20 133 8.0 19.3 0.00 0.00 0.00 65 1010.9
20260504214307 20 158 4.8 19.3 0.00 0.00 0.00 66 1011.0
20260504213806 20 144 6.4 19.3 0.00 0.00 0.00 67 1011.0
20260504212807 20 188 4.8 11.3 0.00 0.00 0.00 66 1011.1
20260504212307 20 196 6.4 12.9 0.00 0.00 0.00 67 1011.2
20260504211807 19 148 9.7 16.1 0.00 0.00 0.00 68 1011.3
20260504211307 19 198 9.7 14.5 0.00 0.00 0.00 67 1011.5
20260504210806 19 188 6.4 16.1 0.00 0.00 0.00 69 1011.5
20260504210307 19 292 4.8 12.9 0.00 0.00 0.00 69 1011.7
20260504205307 18 206 6.4 14.5 0.00 0.00 0.00 69 1011.8
20260504204806 18 211 9.7 14.5 0.00 0.00 0.00 70 1011.9
20260504204307 18 156 6.4 14.5 0.00 0.00 0.00 70 1011.9
20260504203307 18 178 3.2 11.3 0.00 0.00 0.00 71 1012.0
20260504202807 17 196 6.4 16.1 0.00 0.00 0.00 72 1012.1
20260504201806 18 242 6.4 14.5 0.00 0.00 0.00 71 1012.1
20260504201306 17 194 8.0 19.3 0.00 0.00 0.00 72 1012.2
20260504200806 17 189 4.8 11.3 0.00 0.00 0.00 75 1012.2
20260504194307 16 193 4.8 14.5 0.00 0.00 0.00 76 1012.4
20260504193806 16 217 4.8 12.9 0.00 0.00 0.00 76 1012.3
20260504193306 16 202 4.8 12.9 0.00 0.00 0.00 76 1012.4
20260504192807 16 235 4.8 14.5 0.00 0.00 0.00 77 1012.5
20260504192307 15 229 4.8 12.9 0.00 0.00 0.00 77 1012.5
20260504191806 15 192 1.6 11.3 0.00 0.00 0.00 78 1012.5
20260504190306 15 191 3.2 19.3 0.00 0.00 0.00 79 1012.5
20260504185306 15 262 1.6 4.8 0.00 0.00 0.00 79 1012.6